Idaho Falls, ID

5:25 AM MDT on March 30, 2017 (GMT -0600)
Fanning

Weather History for KIDA - December, 2013

Change the Weather History Date:

Thursday, December 12, 2013

  Actual Average Record
Temperature  
Mean Temperature 12 °F 21 °F  
Max Temperature 22 °F 29 °F 58 °F (2014)
Min Temperature 1 °F 12 °F -14 °F (1967)
Degree Days  
Heating Degree Days 53 44  
Month to date heating degree days 656 509  
Since 1 July heating degree days 2380 2412  
Cooling Degree Days 0 0  
Month to date cooling degree days 0 0  
Year to date cooling degree days 510 264  
Moisture  
Dew Point 4 °F    
Average Humidity 78    
Maximum Humidity 88    
Minimum Humidity 68    
Precipitation  
Precipitation 0.00 in 0.03 in 0.16 in (1971)
Month to date precipitation 0.09 0.37  
Year to date precipitation 6.26 9.89  
Sea Level Pressure  
Sea Level Pressure 30.54 in    
Wind  
Wind Speed 5 mph (North)    
Max Wind Speed 10 mph    
Max Gust Speed 12 mph    
Visibility 10 miles    
Events      
T = Trace of Precipitation, MM = Missing Value Source: NWS Daily Summary

Daily Weather History Graph

Daily Weather History Graph

Search for Another Location

Airport or City:

Trip Planner

Search our weather history database for the weather conditions in past years. The results will help you decide how hot, cold, wet, or windy it might be!

Date:

Astronomy

Dec. 12, 2013 Rise Set
Actual Time 7:52 AM MST 4:52 PM MST
Civil Twilight 7:19 AM MST 5:24 PM MST
Nautical Twilight 6:43 AM MST 6:00 PM MST
Astronomical Twilight 6:08 AM MST 6:35 PM MST
Moon 2:06 PM MST (12/12) 3:12 AM MST (12/12)
Length of Visible Light 10h 05m
Length of Day
8h 59m
Waxing Gibbous, 81% of the Moon is Illuminated
Dec 12
Waxing Gibbous
Dec 17
Full
Dec 25
Last Quarter
Jan 1
New
Jan 7
First Quarter

Hourly Weather History & Observations

Time (MST) Temp. Windchill Dew Point Humidity Pressure Visibility Wind Dir Wind Speed Gust Speed Precip Events Conditions
12:53 AM 7.0 °F 0.1 °F 3.0 °F 84% 30.70 in 10.0 mi NE 3.5 mph - N/A   Clear
1:53 AM 7.0 °F -3.3 °F 3.0 °F 84% 30.69 in 10.0 mi North 5.8 mph - N/A   Clear
2:53 AM 5.0 °F -2.1 °F 1.9 °F 87% 30.69 in 10.0 mi NNE 3.5 mph - N/A   Clear
3:53 AM 5.0 °F -6.9 °F 1.9 °F 87% 30.67 in 10.0 mi North 6.9 mph - N/A   Clear
4:53 AM 5.0 °F -5.6 °F 1.0 °F 84% 30.66 in 10.0 mi North 5.8 mph - N/A   Clear
5:53 AM 3.9 °F -9.4 °F -0.0 °F 84% 30.68 in 10.0 mi North 8.1 mph - N/A   Clear
6:53 AM 3.0 °F -8.0 °F -0.9 °F 84% 30.64 in 10.0 mi North 5.8 mph - N/A   Clear
7:53 AM 3.0 °F -6.4 °F -0.9 °F 84% 30.63 in 10.0 mi North 4.6 mph - N/A   Clear
8:53 AM 5.0 °F -8.1 °F 1.9 °F 87% 30.63 in 10.0 mi North 8.1 mph - N/A   Clear
9:53 AM 8.1 °F -2.0 °F 3.9 °F 83% 30.64 in 10.0 mi North 5.8 mph - N/A   Clear
10:53 AM 10.9 °F 0.2 °F 6.1 °F 81% 30.63 in 10.0 mi North 6.9 mph - N/A   Clear
11:53 AM 15.1 °F 6.4 °F 9.0 °F 77% 30.58 in 10.0 mi North 5.8 mph - N/A   Clear
12:53 PM 18.0 °F 11.1 °F 10.9 °F 74% 30.51 in 10.0 mi North 4.6 mph - N/A   Clear
1:53 PM 21.0 °F 14.6 °F 12.9 °F 71% 30.47 in 8.0 mi North 4.6 mph - N/A   Clear
2:53 PM 21.9 °F 15.7 °F 12.9 °F 68% 30.44 in 8.0 mi North 4.6 mph - N/A   Clear
3:53 PM 19.0 °F 12.3 °F 12.0 °F 74% 30.44 in 10.0 mi NNW 4.6 mph - N/A   Clear
4:53 PM 15.1 °F 7.7 °F 9.0 °F 77% 30.44 in 10.0 mi NNW 4.6 mph - N/A   Clear
5:53 PM 10.0 °F 1.8 °F 5.0 °F 80% 30.45 in 10.0 mi North 4.6 mph - N/A   Clear
6:53 PM 8.1 °F 1.4 °F 3.9 °F 83% 30.43 in 10.0 mi NNE 3.5 mph - N/A   Clear
7:53 PM 7.0 °F -4.5 °F 3.0 °F 84% 30.44 in 10.0 mi North 6.9 mph - N/A   Clear
8:53 PM 8.1 °F -0.5 °F 3.9 °F 83% 30.42 in 10.0 mi NE 4.6 mph - N/A   Clear
9:53 PM 6.1 °F -0.9 °F 1.9 °F 83% 30.41 in 10.0 mi North 3.5 mph - N/A   Clear
10:53 PM 6.1 °F -0.9 °F 3.0 °F 87% 30.39 in 10.0 mi ENE 3.5 mph - N/A   Clear
11:53 PM 1.9 °F - -2.0 °F 83% 30.38 in 10.0 mi Calm Calm - N/A   Clear